| time (UTC) | temp F | wind direction | speed MPH | gust MPH | rain 1hr in | rain 24hr in | rain mn in | humidity % | barometer mb |
| 20260502222004 | 60 | 45 | 0.0 | 9.0 | 0.00 | 0.00 | 0.00 | 39 | 1011.5 |
| 20260502221503 | 61 | 33 | 2.0 | 9.0 | 0.00 | 0.00 | 0.00 | 38 | 1011.5 |
| 20260502221003 | 61 | 32 | 2.0 | 7.0 | 0.00 | 0.00 | 0.00 | 40 | 1011.5 |
| 20260502220002 | 61 | 171 | 1.0 | 7.0 | 0.00 | 0.00 | 0.00 | 40 | 1011.4 |
| 20260502215502 | 61 | 25 | 3.0 | 7.0 | 0.00 | 0.00 | 0.00 | 39 | 1011.4 |
| 20260502215024 | 60 | 36 | 6.0 | 7.0 | 0.00 | 0.00 | 0.00 | 38 | 1011.4 |
| 20260502214502 | 61 | 225 | 2.0 | 7.0 | 0.00 | 0.00 | 0.00 | 40 | 1011.3 |
| 20260502214003 | 61 | 40 | 5.0 | 7.0 | 0.00 | 0.00 | 0.00 | 38 | 1011.3 |
| 20260502213503 | 61 | 42 | 3.0 | 8.0 | 0.00 | 0.00 | 0.00 | 39 | 1011.3 |
| 20260502213003 | 60 | 29 | 1.0 | 8.0 | 0.00 | 0.00 | 0.00 | 38 | 1011.3 |
| 20260502212504 | 60 | 35 | 2.0 | 7.0 | 0.00 | 0.00 | 0.00 | 39 | 1011.2 |
| 20260502212002 | 60 | 149 | 3.0 | 8.0 | 0.00 | 0.00 | 0.00 | 38 | 1011.3 |
| 20260502211502 | 60 | 152 | 1.0 | 9.0 | 0.00 | 0.00 | 0.00 | 38 | 1011.4 |
| 20260502211002 | 61 | 40 | 6.0 | 9.0 | 0.00 | 0.00 | 0.00 | 36 | 1011.3 |
| 20260502210503 | 62 | 111 | 2.0 | 10.0 | 0.00 | 0.00 | 0.00 | 37 | 1011.3 |
| 20260502210003 | 63 | 56 | 2.0 | 10.0 | 0.00 | 0.00 | 0.00 | 34 | 1011.3 |
| 20260502205503 | 63 | 32 | 2.0 | 7.0 | 0.00 | 0.00 | 0.00 | 38 | 1011.3 |
| 20260502205002 | 62 | 282 | 2.0 | 7.0 | 0.00 | 0.00 | 0.00 | 37 | 1011.3 |
| 20260502204503 | 62 | 1 | 3.0 | 7.0 | 0.00 | 0.00 | 0.00 | 38 | 1011.3 |
| 20260502204024 | 62 | 1 | 3.0 | 8.0 | 0.00 | 0.00 | 0.00 | 40 | 1011.3 |
| 20260502203503 | 61 | 17 | 3.0 | 11.0 | 0.00 | 0.00 | 0.00 | 38 | 1011.3 |
| 20260502203003 | 60 | 15 | 8.0 | 11.0 | 0.00 | 0.00 | 0.00 | 38 | 1011.3 |
| 20260502202503 | 60 | 356 | 1.0 | 6.0 | 0.00 | 0.00 | 0.00 | 39 | 1011.4 |
| 20260502202003 | 60 | 27 | 2.0 | 7.0 | 0.00 | 0.00 | 0.00 | 38 | 1011.4 |
| 20260502201524 | 60 | 22 | 4.0 | 7.0 | 0.00 | 0.00 | 0.00 | 39 | 1011.5 |
| 20260502201023 | 59 | 33 | 4.0 | 7.0 | 0.00 | 0.00 | 0.00 | 37 | 1011.5 |
| 20260502200503 | 59 | 354 | 2.0 | 9.0 | 0.00 | 0.00 | 0.00 | 38 | 1011.6 |
| 20260502200024 | 59 | 360 | 2.0 | 10.0 | 0.00 | 0.00 | 0.00 | 38 | 1011.6 |
| 20260502195504 | 59 | 27 | 6.0 | 10.0 | 0.00 | 0.00 | 0.00 | 38 | 1011.7 |
| 20260502195004 | 59 | 43 | 4.0 | 7.0 | 0.00 | 0.00 | 0.00 | 37 | 1011.7 |
| 20260502194502 | 60 | 19 | 3.0 | 8.0 | 0.00 | 0.00 | 0.00 | 38 | 1011.9 |
| 20260502194002 | 60 | 2 | 4.0 | 8.0 | 0.00 | 0.00 | 0.00 | 38 | 1011.7 |
| 20260502193503 | 60 | 46 | 3.0 | 12.0 | 0.00 | 0.00 | 0.00 | 37 | 1011.8 |
| 20260502193003 | 59 | 22 | 2.0 | 12.0 | 0.00 | 0.00 | 0.00 | 38 | 1012.0 |
| 20260502192504 | 59 | 39 | 6.0 | 11.0 | 0.00 | 0.00 | 0.00 | 38 | 1012.2 |
| 20260502192003 | 59 | 43 | 5.0 | 15.0 | 0.00 | 0.00 | 0.00 | 38 | 1012.1 |
| 20260502191504 | 58 | 42 | 10.0 | 15.0 | 0.00 | 0.00 | 0.00 | 39 | 1012.2 |
| 20260502191003 | 58 | 18 | 6.0 | 12.0 | 0.00 | 0.00 | 0.00 | 41 | 1012.3 |
| 20260502190504 | 59 | 33 | 5.0 | 13.0 | 0.00 | 0.00 | 0.00 | 39 | 1012.4 |
| 20260502190002 | 59 | 42 | 5.0 | 14.0 | 0.00 | 0.00 | 0.00 | 39 | 1012.4 |
| 20260502185503 | 59 | 40 | 5.0 | 14.0 | 0.00 | 0.00 | 0.00 | 39 | 1012.4 |
| 20260502185024 | 59 | 21 | 7.0 | 17.0 | 0.00 | 0.00 | 0.00 | 39 | 1012.4 |
| 20260502184502 | 59 | 26 | 10.0 | 17.0 | 0.00 | 0.00 | 0.00 | 39 | 1012.4 |
| 20260502184002 | 59 | 17 | 6.0 | 12.0 | 0.00 | 0.00 | 0.00 | 41 | 1012.5 |
| 20260502183525 | 59 | 12 | 7.0 | 13.0 | 0.00 | 0.00 | 0.00 | 44 | 1012.3 |
| 20260502183003 | 58 | 16 | 5.0 | 15.0 | 0.00 | 0.00 | 0.00 | 48 | 1012.4 |
| 20260502182503 | 58 | 30 | 11.0 | 15.0 | 0.00 | 0.00 | 0.00 | 44 | 1012.3 |
| 20260502182003 | 57 | 4 | 3.0 | 15.0 | 0.00 | 0.00 | 0.00 | 45 | 1012.4 |
| 20260502181503 | 57 | 26 | 8.0 | 17.0 | 0.00 | 0.00 | 0.00 | 44 | 1012.3 |
| 20260502181002 | 57 | 26 | 11.0 | 17.0 | 0.00 | 0.00 | 0.00 | 47 | 1012.4 |
| 20260502180503 | 58 | 37 | 7.0 | 17.0 | 0.00 | 0.00 | 0.00 | 48 | 1012.4 |
| 20260502170502 | 59 | 14 | 7.0 | 16.0 | 0.00 | 0.00 | 0.00 | 49 | 1012.7 |
| 20260502164004 | 59 | 30 | 7.0 | 15.0 | 0.00 | 0.00 | 0.00 | 53 | 1013.3 |
| 20260502163503 | 58 | 4 | 8.0 | 17.0 | 0.00 | 0.00 | 0.00 | 52 | 1013.3 |
| 20260502163003 | 58 | 9 | 9.0 | 17.0 | 0.00 | 0.00 | 0.00 | 52 | 1013.2 |
| 20260502162504 | 57 | 30 | 11.0 | 15.0 | 0.00 | 0.00 | 0.00 | 55 | 1013.4 |
| 20260502162004 | 57 | 7 | 8.0 | 13.0 | 0.00 | 0.00 | 0.00 | 56 | 1013.4 |
| 20260502161504 | 57 | 18 | 7.0 | 13.0 | 0.00 | 0.00 | 0.00 | 58 | 1013.3 |
| 20260502161024 | 57 | 7 | 6.0 | 17.0 | 0.00 | 0.00 | 0.00 | 59 | 1013.3 |
| 20260502160503 | 57 | 24 | 12.0 | 17.0 | 0.00 | 0.00 | 0.00 | 57 | 1013.5 |
| 20260502152004 | 56 | 42 | 8.0 | 12.0 | 0.00 | 0.00 | 0.00 | 67 | 1013.6 |
| 20260502151503 | 56 | 32 | 7.0 | 11.0 | 0.00 | 0.00 | 0.00 | 68 | 1013.8 |
| 20260502151004 | 55 | 47 | 5.0 | 8.0 | 0.00 | 0.00 | 0.00 | 70 | 1013.7 |
| 20260502150504 | 55 | 38 | 3.0 | 7.0 | 0.00 | 0.00 | 0.00 | 69 | 1014.1 |
| 20260502130503 | 54 | 17 | 4.0 | 7.0 | 0.00 | 0.00 | 0.00 | 71 | 1013.2 |
| 20260502123504 | 53 | 30 | 4.0 | 8.0 | 0.00 | 0.00 | 0.00 | 75 | 1012.9 |
| 20260502123004 | 53 | 24 | 4.0 | 11.0 | 0.00 | 0.00 | 0.00 | 77 | 1012.6 |
| 20260502122503 | 53 | 20 | 6.0 | 11.0 | 0.00 | 0.00 | 0.00 | 77 | 1012.4 |
| 20260502122003 | 54 | 12 | 4.0 | 8.0 | 0.00 | 0.00 | 0.00 | 77 | 1012.8 |
| 20260502121524 | 54 | 10 | 2.0 | 7.0 | 0.00 | 0.00 | 0.00 | 75 | 1013.0 |
| 20260502121004 | 54 | 26 | 3.0 | 11.0 | 0.00 | 0.00 | 0.00 | 76 | 1012.7 |
| 20260502120504 | 54 | 26 | 5.0 | 11.0 | 0.00 | 0.00 | 0.00 | 75 | 1012.1 |
| 20260502115503 | 54 | 23 | 8.0 | 16.0 | 0.00 | 0.00 | 0.00 | 71 | 1011.9 |
| 20260502115003 | 54 | 22 | 8.0 | 13.0 | 0.00 | 0.00 | 0.00 | 74 | 1012.0 |
| 20260502114503 | 54 | 25 | 7.0 | 15.0 | 0.00 | 0.00 | 0.00 | 75 | 1012.5 |
| 20260502114004 | 54 | 24 | 7.0 | 15.0 | 0.00 | 0.00 | 0.00 | 76 | 1012.4 |
| 20260502113503 | 54 | 10 | 7.0 | 14.0 | 0.00 | 0.00 | 0.00 | 77 | 1012.2 |
| 20260502113003 | 54 | 20 | 7.0 | 14.0 | 0.00 | 0.00 | 0.00 | 79 | 1012.2 |
| 20260502112504 | 54 | 9 | 4.0 | 12.0 | 0.00 | 0.00 | 0.00 | 81 | 1012.1 |
| 20260502112004 | 54 | 27 | 5.0 | 12.0 | 0.00 | 0.00 | 0.00 | 79 | 1012.3 |
| 20260502111503 | 54 | 8 | 5.0 | 12.0 | 0.00 | 0.00 | 0.00 | 79 | 1012.2 |
| 20260502111004 | 54 | 12 | 7.0 | 12.0 | 0.00 | 0.00 | 0.00 | 82 | 1011.9 |
| 20260502110503 | 54 | 13 | 4.0 | 8.0 | 0.00 | 0.00 | 0.00 | 82 | 1011.9 |
| 20260502110004 | 54 | 18 | 4.0 | 7.0 | 0.00 | 0.00 | 0.00 | 84 | 1011.7 |
| 20260502105503 | 54 | 19 | 3.0 | 7.0 | 0.00 | 0.00 | 0.00 | 84 | 1011.7 |
| 20260502105003 | 54 | 28 | 4.0 | 7.0 | 0.00 | 0.00 | 0.00 | 83 | 1011.6 |
| 20260502104524 | 54 | 23 | 4.0 | 9.0 | 0.00 | 0.00 | 0.00 | 83 | 1011.7 |
| 20260502104004 | 54 | 26 | 5.0 | 9.0 | 0.00 | 0.00 | 0.00 | 83 | 1011.7 |
| 20260502103503 | 54 | 27 | 4.0 | 8.0 | 0.00 | 0.00 | 0.00 | 83 | 1011.8 |
| 20260502103003 | 54 | 24 | 3.0 | 8.0 | 0.00 | 0.00 | 0.00 | 83 | 1011.8 |
| 20260502102503 | 54 | 30 | 4.0 | 8.0 | 0.00 | 0.00 | 0.00 | 84 | 1011.6 |
| 20260502101504 | 54 | 30 | 4.0 | 14.0 | 0.00 | 0.00 | 0.00 | 84 | 1011.7 |
| 20260502101003 | 54 | 32 | 4.0 | 14.0 | 0.00 | 0.00 | 0.00 | 84 | 1011.8 |
| 20260502100503 | 54 | 23 | 4.0 | 12.0 | 0.00 | 0.00 | 0.00 | 87 | 1011.9 |
| 20260502091504 | 54 | 18 | 4.0 | 7.0 | 0.00 | 0.00 | 0.00 | 86 | 1012.4 |
| 20260502091024 | 55 | 21 | 2.0 | 4.0 | 0.00 | 0.00 | 0.00 | 86 | 1012.6 |
| 20260502090504 | 55 | 1 | 3.0 | 5.0 | 0.00 | 0.00 | 0.00 | 86 | 1012.6 |
| 20260502071502 | 56 | 151 | 0.0 | 2.0 | 0.00 | 0.00 | 0.00 | 78 | 1011.3 |
| 20260502071002 | 56 | 151 | 1.0 | 2.0 | 0.00 | 0.00 | 0.00 | 78 | 1011.2 |
| 20260502070503 | 56 | 0 | 0.0 | 2.0 | 0.00 | 0.00 | 0.00 | 78 | 1011.3 |
| 20260502070002 | 56 | 151 | 1.0 | 3.0 | 0.00 | 0.00 | 0.00 | 78 | 1011.3 |
| 20260502065502 | 56 | 151 | 2.0 | 4.0 | 0.00 | 0.00 | 0.00 | 77 | 1011.3 |
| 20260502065003 | 56 | 151 | 1.0 | 4.0 | 0.00 | 0.00 | 0.00 | 77 | 1011.4 |
| 20260502064502 | 56 | 151 | 0.0 | 2.0 | 0.00 | 0.00 | 0.00 | 77 | 1011.5 |
| 20260502064003 | 56 | 151 | 1.0 | 3.0 | 0.00 | 0.00 | 0.00 | 77 | 1011.4 |
| 20260502063502 | 56 | 151 | 2.0 | 3.0 | 0.00 | 0.00 | 0.00 | 77 | 1011.5 |
| 20260502063003 | 56 | 151 | 2.0 | 3.0 | 0.00 | 0.00 | 0.00 | 78 | 1011.5 |
| 20260502062503 | 56 | 151 | 2.0 | 3.0 | 0.00 | 0.00 | 0.00 | 77 | 1011.5 |
| 20260502062002 | 56 | 151 | 1.0 | 2.0 | 0.00 | 0.00 | 0.00 | 77 | 1011.6 |
| 20260502061503 | 57 | 151 | 0.0 | 2.0 | 0.00 | 0.00 | 0.00 | 77 | 1011.7 |
| 20260502061003 | 57 | 151 | 1.0 | 3.0 | 0.00 | 0.00 | 0.00 | 76 | 1011.6 |
| 20260502060502 | 57 | 162 | 1.0 | 3.0 | 0.00 | 0.00 | 0.00 | 76 | 1011.7 |
| 20260502060002 | 57 | 169 | 2.0 | 3.0 | 0.00 | 0.00 | 0.00 | 76 | 1011.8 |
| 20260502055503 | 57 | 169 | 1.0 | 3.0 | 0.00 | 0.00 | 0.00 | 76 | 1011.9 |
| 20260502055003 | 57 | 169 | 1.0 | 3.0 | 0.00 | 0.00 | 0.00 | 76 | 1011.9 |
| 20260502054502 | 57 | 169 | 1.0 | 3.0 | 0.00 | 0.00 | 0.00 | 76 | 1011.9 |
| 20260502054002 | 57 | 169 | 2.0 | 3.0 | 0.00 | 0.00 | 0.00 | 76 | 1012.1 |
| 20260502053502 | 57 | 169 | 0.0 | 3.0 | 0.00 | 0.00 | 0.00 | 76 | 1012.1 |
| 20260502053003 | 57 | 169 | 1.0 | 2.0 | 0.00 | 0.00 | 0.00 | 76 | 1012.1 |
| 20260502052502 | 57 | 169 | 1.0 | 2.0 | 0.00 | 0.00 | 0.00 | 75 | 1012.1 |
| 20260502052003 | 57 | 169 | 1.0 | 5.0 | 0.00 | 0.00 | 0.00 | 75 | 1012.1 |
| 20260502051502 | 57 | 169 | 1.0 | 5.0 | 0.00 | 0.00 | 0.00 | 75 | 1012.1 |
| 20260502051003 | 57 | 146 | 3.0 | 5.0 | 0.00 | 0.00 | 0.00 | 75 | 1012.2 |
| 20260502050502 | 57 | 160 | 1.0 | 4.0 | 0.00 | 0.00 | 0.00 | 75 | 1012.2 |
| 20260502050002 | 57 | 160 | 2.0 | 5.0 | 0.00 | 0.00 | 0.00 | 75 | 1012.1 |
| 20260502045523 | 57 | 164 | 2.0 | 5.0 | 0.00 | 0.00 | 0.00 | 75 | 1012.3 |
| 20260502045002 | 57 | 158 | 3.0 | 5.0 | 0.00 | 0.00 | 0.00 | 75 | 1012.3 |
| 20260502044504 | 57 | 164 | 2.0 | 4.0 | 0.00 | 0.00 | 0.00 | 75 | 1012.4 |
| 20260502044003 | 57 | 164 | 2.0 | 2.0 | 0.00 | 0.00 | 0.00 | 75 | 1012.5 |
| 20260502043524 | 57 | 164 | 0.0 | 2.0 | 0.00 | 0.00 | 0.00 | 75 | 1012.4 |
| 20260502043023 | 57 | 164 | 0.0 | 2.0 | 0.00 | 0.00 | 0.00 | 76 | 1012.4 |
| 20260502042524 | 57 | 164 | 0.0 | 2.0 | 0.00 | 0.00 | 0.00 | 76 | 1012.4 |
| 20260502042024 | 57 | 164 | 1.0 | 2.0 | 0.00 | 0.00 | 0.00 | 76 | 1012.5 |
| 20260502041502 | 57 | 164 | 1.0 | 2.0 | 0.00 | 0.00 | 0.00 | 75 | 1012.3 |
| 20260502041002 | 57 | 0 | 0.0 | 1.0 | 0.00 | 0.00 | 0.00 | 75 | 1012.3 |
| 20260502040503 | 57 | 164 | 0.0 | 1.0 | 0.00 | 0.00 | 0.00 | 75 | 1012.5 |
| 20260502040003 | 57 | 0 | 0.0 | 0.0 | 0.00 | 0.00 | 0.00 | 75 | 1012.5 |
| 20260502035502 | 57 | 0 | 0.0 | 3.0 | 0.00 | 0.00 | 0.00 | 75 | 1012.4 |
| 20260502035024 | 57 | 0 | 0.0 | 3.0 | 0.00 | 0.00 | 0.00 | 74 | 1012.5 |
| 20260502034502 | 57 | 0 | 0.0 | 3.0 | 0.00 | 0.00 | 0.00 | 74 | 1012.4 |
| 20260502034003 | 57 | 0 | 0.0 | 3.0 | 0.00 | 0.00 | 0.00 | 74 | 1012.5 |
| 20260502033502 | 57 | 164 | 2.0 | 3.0 | 0.00 | 0.00 | 0.00 | 74 | 1012.5 |
| 20260502033003 | 57 | 0 | 0.0 | 0.0 | 0.00 | 0.00 | 0.00 | 74 | 1012.5 |
| 20260502032504 | 57 | 0 | 0.0 | 2.0 | 0.00 | 0.00 | 0.00 | 74 | 1012.6 |
| 20260502032024 | 57 | 0 | 0.0 | 2.0 | 0.00 | 0.00 | 0.00 | 74 | 1012.8 |
| 20260502031523 | 57 | 164 | 1.0 | 2.0 | 0.00 | 0.00 | 0.00 | 74 | 1012.8 |
| 20260502031002 | 57 | 0 | 0.0 | 2.0 | 0.00 | 0.00 | 0.00 | 74 | 1012.8 |
| 20260502030502 | 57 | 164 | 1.0 | 2.0 | 0.00 | 0.00 | 0.00 | 74 | 1012.8 |
| 20260502030002 | 58 | 0 | 0.0 | 1.0 | 0.00 | 0.00 | 0.00 | 72 | 1012.8 |
| 20260502025503 | 58 | 0 | 0.0 | 2.0 | 0.00 | 0.00 | 0.00 | 72 | 1012.8 |
| 20260502025003 | 58 | 164 | 0.0 | 3.0 | 0.00 | 0.00 | 0.00 | 71 | 1012.8 |
| 20260502024502 | 58 | 164 | 1.0 | 3.0 | 0.00 | 0.00 | 0.00 | 71 | 1012.8 |
| 20260502024003 | 58 | 164 | 2.0 | 3.0 | 0.00 | 0.00 | 0.00 | 70 | 1012.7 |
| 20260502023502 | 58 | 164 | 1.0 | 3.0 | 0.00 | 0.00 | 0.00 | 70 | 1012.7 |
| 20260502023003 | 58 | 164 | 2.0 | 4.0 | 0.00 | 0.00 | 0.00 | 70 | 1012.8 |
| 20260502022502 | 58 | 169 | 3.0 | 4.0 | 0.00 | 0.00 | 0.00 | 70 | 1012.9 |
| 20260502022003 | 58 | 179 | 1.0 | 5.0 | 0.00 | 0.00 | 0.00 | 70 | 1012.8 |
| 20260502021503 | 58 | 180 | 2.0 | 5.0 | 0.00 | 0.00 | 0.00 | 70 | 1013.0 |
| 20260502021002 | 58 | 188 | 0.0 | 4.0 | 0.00 | 0.00 | 0.00 | 70 | 1013.0 |
| 20260502020523 | 59 | 188 | 2.0 | 4.0 | 0.00 | 0.00 | 0.00 | 69 | 1012.8 |
| 20260502020024 | 59 | 157 | 2.0 | 4.0 | 0.00 | 0.00 | 0.00 | 69 | 1012.7 |
| 20260502015502 | 59 | 175 | 2.0 | 3.0 | 0.00 | 0.00 | 0.00 | 69 | 1012.6 |
| 20260502015004 | 59 | 174 | 2.0 | 4.0 | 0.00 | 0.00 | 0.00 | 69 | 1012.6 |
| 20260502014502 | 59 | 174 | 2.0 | 5.0 | 0.00 | 0.00 | 0.00 | 69 | 1012.6 |
| 20260502014024 | 59 | 164 | 3.0 | 5.0 | 0.00 | 0.00 | 0.00 | 69 | 1012.7 |
| 20260502013503 | 59 | 171 | 3.0 | 5.0 | 0.00 | 0.00 | 0.00 | 69 | 1012.8 |
| 20260502013002 | 59 | 179 | 2.0 | 5.0 | 0.00 | 0.00 | 0.00 | 69 | 1012.7 |
| 20260502012502 | 59 | 148 | 2.0 | 5.0 | 0.00 | 0.00 | 0.00 | 69 | 1012.6 |
| 20260502012023 | 59 | 165 | 1.0 | 4.0 | 0.00 | 0.00 | 0.00 | 69 | 1012.7 |
| 20260502011503 | 59 | 165 | 2.0 | 4.0 | 0.00 | 0.00 | 0.00 | 69 | 1012.7 |
| 20260502011003 | 59 | 165 | 2.0 | 4.0 | 0.00 | 0.00 | 0.00 | 68 | 1012.7 |
| 20260502010525 | 59 | 146 | 1.0 | 5.0 | 0.00 | 0.00 | 0.00 | 68 | 1012.8 |
| 20260502010024 | 60 | 194 | 1.0 | 7.0 | 0.00 | 0.00 | 0.00 | 68 | 1012.6 |
| 20260502005502 | 60 | 166 | 3.0 | 7.0 | 0.00 | 0.00 | 0.00 | 68 | 1012.5 |
| 20260502005003 | 60 | 167 | 3.0 | 7.0 | 0.00 | 0.00 | 0.00 | 67 | 1012.5 |
| 20260502004503 | 60 | 169 | 2.0 | 5.0 | 0.00 | 0.00 | 0.00 | 67 | 1012.3 |
| 20260502004024 | 60 | 154 | 2.0 | 7.0 | 0.00 | 0.00 | 0.00 | 65 | 1012.2 |
| 20260502003502 | 60 | 169 | 2.0 | 7.0 | 0.00 | 0.00 | 0.00 | 65 | 1012.3 |
| 20260502003002 | 60 | 162 | 4.0 | 7.0 | 0.00 | 0.00 | 0.00 | 64 | 1012.3 |
| 20260502002504 | 60 | 175 | 3.0 | 7.0 | 0.00 | 0.00 | 0.00 | 65 | 1012.2 |
| 20260502002023 | 60 | 182 | 3.0 | 6.0 | 0.00 | 0.00 | 0.00 | 64 | 1012.2 |
| 20260502001503 | 60 | 165 | 3.0 | 5.0 | 0.00 | 0.00 | 0.00 | 64 | 1011.8 |
| 20260502001004 | 60 | 187 | 2.0 | 6.0 | 0.00 | 0.00 | 0.00 | 64 | 1011.6 |
| 20260502000503 | 60 | 175 | 3.0 | 6.0 | 0.00 | 0.00 | 0.00 | 63 | 1011.5 |
| 20260502000003 | 61 | 153 | 2.0 | 7.0 | 0.00 | 0.00 | 0.00 | 63 | 1011.5 |
| 20260501235502 | 61 | 184 | 2.0 | 7.0 | 0.00 | 0.00 | 0.00 | 63 | 1011.7 |
| 20260501235002 | 61 | 158 | 3.0 | 7.0 | 0.00 | 0.00 | 0.00 | 62 | 1011.8 |
| 20260501234523 | 61 | 174 | 4.0 | 7.0 | 0.00 | 0.00 | 0.00 | 62 | 1011.5 |
| 20260501234003 | 61 | 170 | 2.0 | 7.0 | 0.00 | 0.00 | 0.00 | 62 | 1011.3 |
| 20260501233503 | 62 | 150 | 2.0 | 6.0 | 0.00 | 0.00 | 0.00 | 61 | 1011.3 |
| 20260501233023 | 62 | 167 | 2.0 | 7.0 | 0.00 | 0.00 | 0.00 | 61 | 1011.4 |
| 20260501232525 | 62 | 181 | 3.0 | 9.0 | 0.00 | 0.00 | 0.00 | 60 | 1011.2 |
| 20260501232023 | 62 | 161 | 5.0 | 9.0 | 0.00 | 0.00 | 0.00 | 60 | 1011.3 |
| 20260501231504 | 62 | 169 | 3.0 | 7.0 | 0.00 | 0.00 | 0.00 | 60 | 1011.3 |
| 20260501231003 | 62 | 178 | 4.0 | 7.0 | 0.00 | 0.00 | 0.00 | 59 | 1011.3 |
| 20260501230525 | 62 | 167 | 3.0 | 8.0 | 0.00 | 0.00 | 0.00 | 59 | 1011.3 |
| 20260501230003 | 62 | 160 | 3.0 | 9.0 | 0.00 | 0.00 | 0.00 | 59 | 1011.5 |
| 20260501225502 | 62 | 189 | 5.0 | 10.0 | 0.00 | 0.00 | 0.00 | 58 | 1011.4 |
| 20260501225003 | 62 | 171 | 5.0 | 10.0 | 0.00 | 0.00 | 0.00 | 57 | 1011.5 |
| 20260501224503 | 62 | 170 | 6.0 | 9.0 | 0.00 | 0.00 | 0.00 | 57 | 1011.5 |
| 20260501224003 | 62 | 159 | 5.0 | 10.0 | 0.00 | 0.00 | 0.00 | 58 | 1011.5 |
| 20260501223523 | 62 | 166 | 6.0 | 10.0 | 0.00 | 0.00 | 0.00 | 57 | 1011.5 |
| 20260501223025 | 63 | 185 | 3.0 | 13.0 | 0.00 | 0.00 | 0.00 | 57 | 1011.6 |
| 20260501222502 | 63 | 171 | 7.0 | 12.0 | 0.00 | 0.00 | 0.00 | 56 | 1011.6 |